Location: Cannifist
(18.2333°N, 63.0167°W)
Time: 15:03:49
(UTC+00:00)

Cosmos 540 Rocket - Pass Details

Date: 27 February 2020
Orbit: 740 x 754 km, 74.1° (Epoch: 08 April)

Event Time Altitude Azimuth Distance (km) Brightness Sun altitude
Rises 22:37:21 0° 173° (S) 3,161 6.7 -5.5°
Reaches altitude 10° 22:39:53 10° 164° (SSE) 2,241 5.8 -6.1°
Maximum altitude 22:44:25 33° 100° (E) 1,222 4.1 -7.2°
Drops below altitude 10° 22:48:58 10° 37° (NE) 2,252 5.5 -8.3°
Sets 22:51:30 0° 28° (NNE) 3,179 6.4 -8.9°
